Location: *
(60.1759°S, 155.0663°W)
Time: 11:02:49
(UTC+00:00)

Cosmos 1869 Rocket - Pass Details

Date: 17 September 2019
Orbit: 605 x 633 km, 82.5° (Epoch: 21 October)

Event Time Altitude Azimuth Distance (km) Brightness Sun altitude
Rises 15:20:54 0° 334° (NNW) 2,903 6.6 -8.6°
Reaches altitude 10° 15:23:09 10° 330° (NNW) 1,999 5.8 -8.3°
Maximum altitude 15:27:31 56° 251° (WSW) 748 3.7 -7.8°
Drops below altitude 10° 15:31:54 10° 171° (S) 2,008 6.4 -7.2°
Sets 15:34:11 0° 166° (SSE) 2,918 7.3 -6.9°
